Regional Weather Roundup
Issued by NWS Sterling, VA

Home | Current Version | Previous Version | Graphics & Text | Print | Product List | Glossary On
Versions: 1 2 3 4 5 6 7 8 9 10 11 12 13 14 15 16 17 18 19 20 21 22 23 24 25 26 27 28
000
ASUS41 KLWX 151411
RWRLWX

REGIONAL WEATHER ROUNDUP
NATIONAL WEATHER SERVICE BALTIMORE MD/WASHINGTON DC
900 AM EST MON JAN 15 2018

Note: "FAIR" indicates few or no clouds below 12,000 feet
with no significant weather and/or obstructions to visibility.
 TC=TEMPERATURE CELSIUS

 * =Non NWS site. Station does not report precipitation (e.g. rain,
    snow, etc.), thunder, or fog.

DCZ001-MDZ009-015-VAZ040>042-051-053>054-151500-
WASHINGTON METRO

CITY           SKY/WX    TMP DP  RH WIND       PRES   REMARKS
WASHINGTON NAT FAIR      21   9  59 N8        30.63R WCI  11
DULLES         FAIR      17   8  67 N7        30.61R WCI   8
ANDREWS AFB    PTSUNNY   19  10  69 NE9       30.59R WCI   8
FT BELVOIR     FAIR      20   8  58 CALM      30.62R
QUANTICO       FAIR      21   9  59 N6        30.64R WCI  13
COLLEGE PARK*  FAIR      19   8  63 N6        30.61R WCI  11
LEESBURG*      FAIR      18  10  73 N7        30.62R WCI   8
MANASSAS*      FAIR      16   8  71 N7        30.63R WCI   6
GAITHERSBURG*  FAIR      17   8  67 CALM      30.59R

$$

MDZ006>007-011-014-151500-
BALTIMORE METRO

CITY           SKY/WX    TMP DP  RH WIND       PRES   REMARKS
BWI AIRPORT    PTSUNNY   19  10  68 VRB5      30.61R WCI  12
MD SCIENCE CTR   N/A     21   9  59 MISG      30.63R
MARTIN STATE   CLOUDY    21  12  68 N5        30.64R WCI  15
ANNAPOLIS      CLOUDY    23  16  74 N6        30.61R WCI  16
FORT MEADE*    FAIR      19  10  68 NE6       30.64R WCI  11

$$

MDZ012-015-019>023-151500-
MARYLAND EASTERN SHORE

CITY           SKY/WX    TMP DP  RH WIND       PRES   REMARKS
OCEAN CITY     CLOUDY    29  26  89 N14       30.53R WCI  18
SALISBURY      CLOUDY    27  22  81 NE8       30.54S WCI  19
BAY BRIDGE AP* CLOUDY    23  12  63 MISG      30.61R
CAMBRIDGE*     CLOUDY    23  16  74 N8        30.57S WCI  14
EASTON*        PTSUNNY   23  14  68 NE7       30.61R WCI  15

$$

MDZ017>025-151500-
SOUTHERN MARYLAND

CITY           SKY/WX    TMP DP  RH WIND       PRES   REMARKS
PATUXENT RIVER CLOUDY    24  19  81 NE12      30.58R WCI  13
ST INIGOES     CLOUDY    24  18  77 N9        30.57R WCI  14
LEONARDTOWN*   CLOUDY    25  19  80 NE3       30.60R

$$

MDZ003>005-151500-
NORTH CENTRAL MARYLAND

CITY           SKY/WX    TMP DP  RH WIND       PRES   REMARKS
FREDERICK*     MOSUNNY   16   7  67 N5        30.66R WCI   9
HAGERSTOWN APT FAIR      14   7  73 N5        30.58R WCI   6
WESTMINSTER*   FAIR      16   9  73 CALM      30.56R

$$

MDZ501>502-151500-
WESTERN MARYLAND

CITY           SKY/WX    TMP DP  RH WIND       PRES   REMARKS
OAKLAND*       FAIR       7   1  78 SE10      30.30S WCI  -8
CUMBERLAND*    FAIR     N/A N/A N/A CALM      30.61R

$$

VAZ025>031-151500-
SHENANDOAH VALLEY

CITY           SKY/WX    TMP DP  RH WIND       PRES   REMARKS
WINCHESTER*    FAIR      14   7  73 CALM      30.57S
FRONT ROYAL*   FAIR      12   9  85 MISG      30.57R
LURAY*         FAIR      12  10  92 CALM      30.56R
NEW MARKET*    FAIR      10   4  79 CALM      30.55R
STAUNTON*      FAIR      11   6  81 CALM      30.56R
WAYNESBORO*    FAIR      12   4  72 CALM      30.51R

$$

WVZ021-048>050-054>055-151500-
EASTERN WEST VIRGINIA PANHANDLE

CITY           SKY/WX    TMP DP  RH WIND       PRES   REMARKS
MARTINSBURG    FAIR      15   6  67 N7        30.58R WCI   5
PETERSBURG*    PTSUNNY   10   7  86 CALM      30.54F

$$

VAZ036>039-050-151500-
CENTRAL FOOTHILLS

CITY           SKY/WX    TMP DP  RH WIND       PRES   REMARKS
CHARLOTTESVILL FAIR      18  10  71 CALM      30.57R
CULPEPER*      FAIR      17   7  65 N6        30.62R WCI   9
ORANGE*        FAIR      18   7  62 CALM      30.59R
GORDONSVILLE*  FAIR      18   7  60 MISG      30.59R
WARRENTON*     FAIR      19   6  59 N5        30.61R WCI  12

$$

VAZ055>057-151500-
NORTH AND CENTRAL PIEDMONT

CITY           SKY/WX    TMP DP  RH WIND       PRES   REMARKS
FREDERICKSBRG* FAIR      18  11  72 N5        30.62R WCI  11
STAFFORD*      FAIR      18  11  73 N3        30.66R

$$

NCZ024-NYZ072-PAZ021-071-VAZ022-071-151500-
OTHER REGIONAL OBSERVATIONS

CITY           SKY/WX    TMP DP  RH WIND       PRES   REMARKS
NEW YORK CITY  FAIR      20   8  60 NE8       30.69R WCI  10
PHILADELPHIA   CLOUDY    20   8  60 NE14      30.63S WCI   7
PITTSBURGH     CLOUDY    12   4  70 SE7       30.39S WCI   1
ROANOKE        FAIR      16  12  84 W5        30.55R WCI   9
RICHMOND       PTSUNNY   21  11  65 N12       30.58R WCI   9
RALEIGH        FAIR      20   8  60 N7        30.56R WCI  11

$$

ANZ530>537-151500-
MARINE OBSERVATIONS

STATION/POSITION TIME  TEMP    WIND        PRES
                       AIR SEA DIR/SP/G
                 (UTC) (F)     (DEG/KT/KT) (MB)
THOMAS PT LIGHT  1400   22 32   20/ 14/ 17   N/A
BALT KEY BRIDGE  1348   19      10/  6/  9 1037.1R
COVE POINT       1348   22      30/ 12/ 15 1036.2R
LEWISETTA        1348   24 31   40/  8/ 12 1035.4R
SOLOMONS ISLAND  1348   23 34   10/  7/ 10 1035.3R
PINEY POINT      1342           40/  5/  6   N/A

$$





USA.gov is the U.S. government's official web portal to all federal, state and local government web resources and services.